Location: Caltech
(34.1382°N, 118.1253°W)
Time: 10:04:27
(UTC-07:00)

Gbstr 26 Del rocket - Visible Passes

Search period start: 26 April 2018 00:00
Search period end: 06 May 2018 00:00
Orbit: 494 x 1264 km, 51.8° (Epoch: 26 April)

Date Brightness Start Highest point End Pass type
(mag) Time Alt. Az. Time Alt. Az. Time Alt. Az.
26 Apr 5.4 00:38:09 43° N 00:38:09 43° N 00:44:09 10° NE visible
26 Apr 6.3 02:20:35 12° WNW 02:25:51 22° NNW 02:31:16 10° NE visible
26 Apr 6.4 04:10:31 10° NW 04:15:38 20° N 04:20:13 10° NE visible
26 Apr 5.9 22:49:39 24° NE 22:49:39 24° NE 22:52:22 10° NE visible
27 Apr 5.4 00:32:03 41° NW 00:32:22 41° NNW 00:39:36 10° NE visible
27 Apr 6.4 02:15:59 10° WNW 02:21:40 21° N 02:26:55 10° NE visible
27 Apr 6.3 04:06:05 10° NW 04:11:28 21° NNE 04:16:14 10° ENE visible
27 Apr 6.0 20:48:05 10° SSE 21:00:00 - ENE 20:48:58 12° SSE visible
27 Apr 4.9 22:31:52 10° SW 22:42:13 51° ENE 22:47:54 10° NE visible
28 Apr 5.7 00:24:22 25° WNW 00:28:01 36° NNW 00:35:04 10° NE visible
28 Apr 6.5 02:11:57 10° NW 02:17:29 20° N 02:22:37 10° NE visible
28 Apr 6.2 04:01:37 10° NW 04:07:16 23° NNE 04:12:15 10° ENE visible
28 Apr 5.3 20:42:35 10° S 20:48:27 24° ESE 20:54:34 10° ENE visible
28 Apr 4.4 22:27:19 10° SW 22:35:18 87° NW 22:43:24 10° NE visible
29 Apr 5.9 00:16:35 10° W 00:23:42 32° NNW 00:30:32 10° NE visible
29 Apr 6.5 02:07:52 10° NW 02:13:20 20° N 02:18:23 10° NE visible
29 Apr 6.1 03:57:06 10° NW 04:03:03 25° NNE 04:08:14 10° ENE visible
29 Apr 5.1 20:37:20 10° S 20:43:45 30° ESE 20:50:29 10° ENE visible
29 Apr 4.6 22:22:51 10° SW 22:30:48 75° NW 22:38:53 10° NE visible
30 Apr 6.1 00:12:32 10° W 00:19:25 29° NNW 00:26:01 10° NE visible
30 Apr 6.5 02:03:43 10° NW 02:09:10 20° N 02:14:13 10° NE visible
30 Apr 6.0 03:52:34 10° NW 03:58:49 28° NNE 04:04:13 10° E visible
30 Apr 4.9 20:32:15 10° S 20:39:04 36° SE 20:46:18 10° ENE visible
30 Apr 4.8 22:18:27 10° WSW 22:26:19 64° NW 22:34:21 10° NE visible
01 May 6.2 00:08:31 10° WNW 00:15:09 27° NNW 00:21:33 10° NE visible
01 May 6.5 01:59:30 10° NW 02:05:01 20° N 02:10:06 10° NE visible
01 May 5.8 03:48:00 10° NW 03:54:33 32° NNE 04:00:09 10° E visible
01 May 3.9 05:35:36 10° NW 05:42:32 76° SW 05:48:05 10° SE visible
01 May 4.7 20:27:18 10° SSW 20:34:24 44° SE 20:42:00 10° ENE visible
01 May 5.1 22:14:07 10° WSW 22:21:53 56° NW 22:29:48 10° NE visible
02 May 6.4 00:04:31 10° WNW 00:10:56 25° NNW 00:17:06 10° NE visible
02 May 6.5 01:55:13 10° NW 02:00:51 21° N 02:06:02 10° NE visible
02 May 5.5 03:43:26 10° NW 03:50:16 37° NNE 03:56:03 10° E visible
02 May 4.0 05:31:08 10° NW 05:37:58 61° SW 05:43:29 10° SSE visible
02 May 4.6 20:22:28 10° SSW 20:29:46 54° SE 20:37:38 10° NE visible
02 May 5.4 22:09:52 10° WSW 22:17:28 48° NW 22:25:15 10° NE visible
03 May 6.5 00:00:31 10° WNW 00:06:43 23° NNW 00:12:42 10° NE visible
03 May 6.5 01:50:53 10° NW 01:56:41 22° N 02:02:00 10° ENE visible
03 May 5.3 03:38:52 10° NW 03:45:56 43° NNE 03:51:52 10° ESE visible
03 May 4.1 05:26:43 10° NW 05:33:22 48° SW 05:38:46 10° SSE visible
03 May 4.5 20:17:43 10° SSW 20:25:09 65° SE 20:33:12 10° NE visible
03 May 5.6 22:05:40 10° W 22:13:06 42° NNW 22:20:42 10° NE visible
03 May 6.5 23:56:30 10° WNW 00:02:33 22° N 00:08:21 10° NE visible
04 May 6.4 01:46:29 10° NW 01:52:30 23° NNE 01:58:00 10° ENE visible
04 May 4.9 03:34:16 10° NW 03:41:34 50° NE 03:47:38 10° ESE visible
04 May 4.4 05:22:23 10° WNW 05:28:43 38° SW 05:33:57 10° SSE visible
04 May 4.5 20:13:05 10° SW 20:20:35 78° SE 20:28:45 10° NE visible
04 May 5.9 22:01:32 10° W 22:08:46 37° NNW 22:16:09 10° NE visible
04 May 6.6 23:52:27 10° NW 23:58:22 21° N 00:04:04 10° NE visible
05 May 6.3 01:42:02 10° NW 01:48:18 25° NNE 01:54:00 10° ENE visible
05 May 4.6 03:29:42 10° NW 03:37:11 60° NE 03:43:21 10° ESE visible
05 May 4.7 05:18:07 10° WNW 05:24:02 30° WSW 05:29:01 10° S visible
05 May 4.6 20:08:31 10° SW 20:16:02 89° NW 20:24:15 10° NE visible
05 May 6.1 21:57:26 10° W 22:04:28 33° NNW 22:11:38 10° NE visible
05 May 6.6 23:48:22 10° NW 23:54:12 21° N 23:59:49 10° NE visible
